Location: Remedello Sotto
(45.2500°N, 10.3667°E)
Time: 10:42:11
(UTC+00:00)

Cosmos 1844 - Pass Details

Date: 03 February 2023
Orbit: 822 x 868 km, 70.9° (Epoch: 30 March)

Event Time Altitude Azimuth Distance (km) Brightness Sun altitude
Rises 17:56:13 0° 334° (NNW) 3,464 7.1 -15.7°
Reaches altitude 10° 17:58:42 10° 335° (NNW) 2,522 6.4 -16.2°
Maximum altitude 18:04:32 83° 63° (ENE) 877 3.7 -17.2°
Drops below altitude 10° 18:10:17 10° 153° (SSE) 2,490 5.9 -18.2°
Sets 18:12:43 0° 154° (SSE) 3,417 6.6 -18.6°
